OREBRO PRIVATE current weather conditions

sailwx.info

Wind from 200 at 12 knots

Air temperature 6.0° C
Visibility: greater than 5.4 NM
Dewpoint 5.0° C
Present weather: Drizzle.

Last reported at 2014-Nov-24 20:20 UTC.
Time now 2014-Nov-24 21:44 UTC

Location: N 59°14' E 015°03'.
View on Google Maps.

See reports from other nearby stations

  
Tides and Currents Weather Stations Pressure Air Temp Water Temp Dewpoint Dewpoint Depression Visibility Wind Speed Wind Dir Waves Ship Positions
date/time (UTC)wind fromknots sea level pressurealtimeterstation pressurevisibilityair tempwater tempwave heightnotes
2014-Nov-24 20:20 200 12 5.4 6.0 Drizzle.
2014-Nov-24 19:50 190 11 5.4 5.0
2014-Nov-24 19:20 200 8 5.4 5.0
2014-Nov-24 18:50 200 8 5.4 5.0
2014-Nov-24 18:20 210 11 5.4 6.0
2014-Nov-24 17:50 210 12 5.4 7.0
2014-Nov-24 17:20 210 13 5.4 7.0
2014-Nov-24 16:50 200 12 5.4 7.0
2014-Nov-24 16:20 200 12 5.4 7.0
2014-Nov-24 15:50 200 11 5.4 7.0
2014-Nov-24 15:20 170 10 5.4 7.0
2014-Nov-24 14:50 170 9 5.4 7.0
2014-Nov-24 14:20 150 10 5.4 6.0
2014-Nov-24 13:50 150 8 5.4 7.0 Drizzle.
2014-Nov-24 13:20 150 9 4.3 6.0 Light rain.
2014-Nov-24 12:50 140 9 4.9 6.0 Light rain.
2014-Nov-24 12:20 140 8 4.3 6.0 Rain.
2014-Nov-24 11:50 140 10 3.8 6.0 Rain.
2014-Nov-24 11:20 140 11 3.8 6.0 Rain.
2014-Nov-24 10:50 140 11 2.7 6.0 Rain.
2014-Nov-24 10:20 140 11 2.7 6.0 Light rain.
2014-Nov-24 09:50 130 11 3.2 6.0 Light rain.
2014-Nov-24 09:20 130 11 3.2 6.0 Light drizzle.
2014-Nov-24 08:50 140 9 4.3 6.0 Mist.
2014-Nov-24 08:20 140 8 3.8 6.0 Light drizzle.
2014-Nov-24 07:50 160 8 4.9 6.0 Light drizzle.
2014-Nov-24 07:20 150 9 3.8 6.0 Rain.
2014-Nov-24 06:50 160 11 3.2 6.0 Rain.
2014-Nov-24 06:20 150 10 2.7 6.0 Rain.
2014-Nov-24 05:50 150 11 3.2 6.0 Rain.
2014-Nov-24 05:20 150 12 5.4 7.0 Light rain.
2014-Nov-24 04:50 150 13 5.4 7.0 Light drizzle.
2014-Nov-24 04:20 140 12 5.4 7.0
2014-Nov-24 03:20 130 12 5.4 7.0
2014-Nov-24 02:50 130 12 5.4 7.0
2014-Nov-24 02:20 140 10 5.4 7.0
2014-Nov-24 01:50 150 10 5.4 6.0
2014-Nov-24 01:20 150 10 5.4 6.0
2014-Nov-24 00:50 160 11 5.4 6.0
2014-Nov-24 00:20 140 12 5.4 6.0 Light rain.
2014-Nov-23 23:50 150 11 5.4 7.0
2014-Nov-23 23:20 140 12 5.4 7.0 Light drizzle.
2014-Nov-23 22:50 140 12 gusting 22 5.4 7.0
2014-Nov-23 22:20 140 13 5.4 7.0
2014-Nov-23 21:50 140 12 5.4 7.0
2014-Nov-23 21:20 150 12 5.4 7.0
2014-Nov-23 20:50 130 13 5.4 7.0
2014-Nov-23 20:20 140 13 5.4 7.0
2014-Nov-23 19:50 130 12 5.4 7.0
2014-Nov-23 19:20 130 13 5.4 7.0
2014-Nov-23 18:50 140 12 gusting 22 5.4 7.0
2014-Nov-23 18:20 130 13 5.4 7.0
2014-Nov-23 17:50 130 11 5.4 7.0
2014-Nov-23 17:20 130 11 5.4 6.0
2014-Nov-23 16:50 130 7 5.4 6.0
2014-Nov-23 16:20 130 10 5.4 6.0
2014-Nov-23 15:50 130 8 5.4 6.0
2014-Nov-23 15:20 120 7 5.4 6.0
2014-Nov-23 14:50 130 6 5.4 6.0
2014-Nov-23 14:20 120 7 5.4 6.0
2014-Nov-23 13:50 120 7 5.4 6.0
2014-Nov-23 13:20 120 8 5.4 6.0
2014-Nov-23 12:50 130 8 5.4 5.0
2014-Nov-23 12:20 130 6 5.4 5.0
2014-Nov-23 11:50 140 5 5.4 5.0
2014-Nov-23 11:20 110 3 5.4 4.0
2014-Nov-23 10:50 070 2 5.4 4.0
2014-Nov-23 10:20 090 3 5.4 4.0
2014-Nov-23 09:50 070 2 5.4 3.0
2014-Nov-23 09:20 080 3 5.4 3.0
2014-Nov-23 08:50 110 2 4.9 3.0
2014-Nov-23 08:20 080 5 3.8 3.0 Mist.
2014-Nov-23 07:50 030 5 4.3 3.0
2014-Nov-23 07:20 050 3 5.4 3.0
2014-Nov-23 06:50 070 2 4.9 2.0
2014-Nov-23 06:20 070 3 4.3 2.0 Mist.
2014-Nov-23 05:50 040 2 4.9 2.0 Mist.
2014-Nov-23 05:20 090 4 3.8 2.0 Light rain.
2014-Nov-23 04:50 120 4 3.8 2.0 Light rain.
2014-Nov-23 04:20 070 4 4.9 2.0 Mist.
2014-Nov-23 03:50 120 5 4.3 2.0
2014-Nov-23 03:20 4.3 2.0 Mist.
2014-Nov-23 02:50 090 3 3.8 2.0 Mist.
2014-Nov-23 02:20 110 3 3.2 2.0 Mist.
2014-Nov-23 01:50 110 1 1.6 2.0
2014-Nov-23 01:20 050 4 0.8 3.0
2014-Nov-23 00:50 030 5 0.9 2.0
2014-Nov-23 00:20 030 3 0.4 2.0 Fog.
2014-Nov-22 23:50 010 1 0.2 2.0
2014-Nov-22 23:20 360 2 0.5 2.0
2014-Nov-22 22:50 030 1 0.3 2.0
2014-Nov-22 22:20 030 4 0.1 1.0 Fog.
2014-Nov-22 21:50 040 3 0.1 1.0 Fog.
2014-Nov-22 21:20 020 2 0.1 1.0 Fog.